Terug naar catalogus

DELTA 1 DEB

LostUNKNOWN
NORAD 29010·DEBRIS·🇺🇸 United States

Gelanceerd Nov 6, 1965 vanaf Cape Canaveral Space Force Station

Loading…

Volgende Passages (komende 24 uur)

TLE

VerouderdSource: Space-Track

Epoch: Jun 10, 2026, 09:14 UTC

1 29010U 65089H   26161.38517686  .00000458  00000-0  30818-2 0  9999
2 29010  59.2645 104.9923 0654306 177.5960 284.7816 12.09421235524165

Volg DELTA 1 DEB in realtime met AllMySat

Download on the App Store